« Back
NWS Peachtree City, Ga » Text Product » GA Regional Weather Roundup


Printer-friendly Version
Current Version              Previous Versions:   1  2  3  4  5  6  7  8  9  

Regional Weather Roundup

760
ASUS42 KFFC 250003
RWRGA
WEATHER ROUNDUP FOR GEORGIA
NATIONAL WEATHER SERVICE PEACHTREE CITY GA
800 PM EDT SAT SEP 24 2016

NOTE: "FAIR" INDICATES FEW OR NO CLOUDS BELOW 12,000 FEET WITH NO
SIGNIFICANT WEATHER AND/OR OBSTRUCTIONS TO VISIBILITY.

* = USE WITH CAUTION. THE STATIONS MARKED WITH AN ASTERISK MAY NOT
REPORT WEATHER SUCH AS PRECIPITATION, FOG, OR THUNDER AND ARE NOT
QUALITY CONTROLLED BY NWS.

THE REMARK "TC" DENOTES TEMPERATURE READING IN DEGREES CELSIUS.

GAZ001>058-250100-
NORTH GEORGIA

CITY           SKY/WX    TMP DP  RH WIND       PRES   REMARKS
ATLANTA        PTCLDY    83  65  54 CALM      30.04S
6HR MIN TEMP:  83; 6HR MAX TEMP:  92;

ATHENS         CLEAR     78  64  61 CALM      30.03S
6HR MIN TEMP:  78; 6HR MAX TEMP:  93;

CHAMBLEE       CLEAR     83  63  50 CALM      30.04S
6HR MIN TEMP:  81; 6HR MAX TEMP:  93;

PEACHTREE CITY CLEAR     77  72  84 CALM      30.04R
6HR MIN TEMP:  77; 6HR MAX TEMP:  91;

ROME           CLEAR     85  59  41 CALM      30.01R
6HR MIN TEMP:  85; 6HR MAX TEMP:  96;

WEST ATLANTA   CLEAR     80  68  66 CALM      30.03R
6HR MIN TEMP:  80; 6HR MAX TEMP:  92;

GAINESVILLE      N/A     82  65  56 CALM      30.08R
6HR MIN TEMP:  82; 6HR MAX TEMP:  91;

CARTERSVILLE   CLEAR     76  67  73 CALM      30.03R
6HR MIN TEMP:  76; 6HR MAX TEMP:  93;



CITY           SKY/WX    TMP DP  RH WIND       PRES   REMARKS
DALTON*        CLEAR     81  64  57 CALM      30.03S
LAWRENCEVILLE* CLEAR     81  64  57 CALM      30.05R
MARIETTA       PTCLDY    83  67  57 CALM      30.04S
KENNESAW*      CLEAR     81  63  54 CALM      30.01R
CANTON*        CLEAR     86  57  37 CALM      30.07S
BLAIRSVILLE*     N/A    N/A N/A N/A MISG      30.10S
$$

GAZ059>098-102>109-250100-
CENTRAL GEORGIA

CITY           SKY/WX    TMP DP  RH WIND       PRES   REMARKS
AUGUSTA-BUSH   CLEAR     74  71  91 CALM      30.00R
6HR MIN TEMP:  74; 6HR MAX TEMP:  92;

AUGUSTA-DANIEL CLEAR     85  63  47 E5        30.02S
6HR MIN TEMP:  85; 6HR MAX TEMP:  93;

COLUMBUS       CLOUDY    81  68  64 W3        30.01R
6HR MIN TEMP:  80; 6HR MAX TEMP:  96; 6HR PCP: TRACE;

MACON          CLEAR     83  65  54 SE3       30.00R
6HR MIN TEMP:  83; 6HR MAX TEMP:  95;

ROBINS AFB     CLEAR     80  70  70 E1        29.99S


CITY           SKY/WX    TMP DP  RH WIND       PRES   REMARKS
LAGRANGE*      CLOUDY    81  70  69 CALM      30.02S
MILLEDGEVILLE* CLEAR     81  70  69 CALM      30.00S
$$

GAZ099>101-110>166-250100-
SOUTH GEORGIA

CITY           SKY/WX    TMP DP  RH WIND       PRES   REMARKS
SAVANNAH       PTCLDY    80  72  76 SE6       30.01R
6HR MIN TEMP:  79; 6HR MAX TEMP:  91;

VALDOSTA       CLEAR     79  74  84 CALM      30.00R
6HR MIN TEMP:  79; 6HR MAX TEMP:  93;

ALMA           CLEAR     78  72  81 CALM      30.01R
6HR MIN TEMP:  77; 6HR MAX TEMP:  92;

ST SIMONS      PTCLDY    80  73  79 E6        30.01R
6HR MIN TEMP:  80; 6HR MAX TEMP:  85;

FT STEWART     PTCLDY    80  74  83 CALM      29.99R
ALBANY         CLEAR     82  68  62 CALM      30.01R
HUNTER AFB     PTCLDY    79  78  96 SE3       29.99R
MOODY AFB      CLEAR     81  72  74 CALM      29.99S
BRUNSWICK      PTCLDY    81  77  89 E3        30.02R


CITY           SKY/WX    TMP DP  RH WIND       PRES   REMARKS
BAINBRIDGE*    CLEAR     81  72  74 CALM      30.00R
MOULTRIE*      CLEAR     82  70  65 CALM      30.01R
VIDALIA*       CLOUDY    81  73  78 CALM      30.02R
WAYCROSS*      CLEAR     84  75  74 E5        30.01R HX  92
DOUGLAS*       CLEAR     81  68  65 CALM      30.02R
$$




USA.gov is the U.S. government's official web portal to all federal, state and local government web resources and services.